Regional Weather Roundup
Issued by NWS

Home | Current Version | Previous Version | Text Only | Print | Product List | Glossary On
Versions: 1 2 3 4 5 6 7 8 9 10 11 12 13 14 15 16 17 18 19 20 21 22 23 24 25 26 27 28 29 30 31 32 33 34 35 36 37 38 39 40 41 42 43 44 45 46 47 48 49 50
000
ASUS45 KSLC 031610
RWRUT

UTAH REGIONAL WEATHER ROUNDUP
NATIONAL WEATHER SERVICE SALT LAKE CITY UT
1000 AM MDT FRI JUL 03 2015

UTZ001>011-023>025-031700-

NORTHERN UTAH

CITY           SKY/WX    TMP DP  RH WIND       PRES   REMARKS
BRIGHAM CITY   SUNNY     80  50  35 CALM      30.04F
HILL AFB       SUNNY     79  49  33 E13       30.07S
LOGAN          SUNNY     76  46  34 N6        30.06S
OGDEN          SUNNY     84  48  28 S5        30.04S
PROVO AIRPORT  MOSUNNY   81  45  28 CALM      30.08S
SALT LAKE CITY MOSUNNY   85  50  29 SE6       30.02F
VERNAL         SUNNY     80  44  27 S3        30.13S
WENDOVER       MOSUNNY   84  46  26 E7        30.04S
HEBER CITY     SUNNY     72  43  35 CALM      30.17F
WEST JORDAN    SUNNY     84  48  28 E8        30.07S

$$

UTZ012>022-026-027-031700-

SOUTHERN/CENTRAL UTAH

CITY           SKY/WX    TMP DP  RH WIND       PRES   REMARKS
BLANDING       MOSUNNY   74  55  51 SE6       30.29S
BRYCE CANYON   CLOUDY    68  51  54 N5        30.32S
CEDAR CITY     CLOUDY    79  52  38 NE5       30.16R
DELTA          SUNNY     83  46  27 S6        30.08S
HANKSVILLE     PTSUNNY   90  45  20 SE5       30.05S
MILFORD        CLOUDY    73  55  53 S8        30.12R
MOAB/CYNLANDS  SUNNY     87  51  28 SE8       30.03F
PRICE          SUNNY     87  41  19 E7        30.14S
ST GEORGE      SUNNY     84  54  34 CALM      29.98R
KANAB          PTSUNNY   79  55  44 CALM      30.17S

$$

REGIONAL REPORTS     COLORADO/ARIZONA

CITY           SKY/WX    TMP DP  RH WIND       PRES   REMARKS
CRAIG, CO      SUNNY     76  49  38 N5        30.20F
GRAND JUNCTION SUNNY     83  49  30 SE17      30.08F
RIFLE          SUNNY     79  47  32 VRB3      30.15S
MONTROSE       SUNNY     82  50  32 SE15      30.18F
CORTEZ         MOSUNNY   78  53  41 CALM      30.22S
PAGE, AZ       CLOUDY    83  52  34 CALM      30.05R
GRAND CANYON   SUNNY     75  54  47 S12       30.26
KINGMAN        SUNNY     92  49  22 SW14      30.02R
FLAGSTAFF      PTSUNNY   67  53  61 SW17      30.31R

$$

REGIONAL REPORTS    NEVADA/IDAHO/WYOMING

CITY           SKY/WX    TMP DP  RH WIND       PRES   REMARKS
LAS VEGAS, NV  PTSUNNY   94  52  24 S14       29.87R HX  91
ELY            PTSUNNY   74  52  46 S8        30.23S
ELKO           CLOUDY    69  50  50 CALM      30.15R
POCATELLO, ID  SUNNY     81  45  28 SW10      30.06F
BURLEY         SUNNY     80  47  31 W7        30.02S
EVANSTON, WY   SUNNY     73  46  38 CALM      30.28S
ROCK SPRINGS   SUNNY     71  51  49 NE5       30.26S
KEMMERER       SUNNY     73  48  40 E5        30.28F

$$


USA.gov is the U.S. government's official web portal to all federal, state and local government web resources and services.